Voltar ao catálogo

STARLINK-31028

AtivoComunicaçõesVLEO
NORAD 58516·PAYLOAD·🇺🇸 United States

Lançado Dec 7, 2023 de Cape Canaveral Space Force Station

Loading…

Próximas Passagens (próximas 24 horas)

TLE

AtualizadoSource: CelesTrak SupGP

Época: Sep 15, 2026, 03:17 UTC

1 58516C 23191J   26258.13729167  .00035193  00000+0  12744-2 0  2588
2 58516  42.9995 113.1949 0001406 271.1835 276.5180 15.27568651    17

Acompanhe STARLINK-31028 em tempo real com AllMySat

Download on the App Store